Location: Juiz de Fora
(21.7500°S, 43.3330°W)
Time: 04:14:41
(UTC-03:00)

Hubble Space Telescope - Pass Details

Date: 28 June 2024
Orbit: 510 x 513 km, 28.5° (Epoch: 17 July)

Event Time Altitude Azimuth Distance (km) Brightness Sun altitude
Rises 19:34:18 0° 249° (WSW) 2,624 5.0 -29.9°
Reaches altitude 10° 19:36:33 10° 247° (WSW) 1,737 3.9 -30.4°
Enters shadow 19:37:37 17° 245° (WSW) 1,333 3.2 -30.6°
